Regional Weather Roundup
Issued by NWS Goodland, KS

Home | Current Version | Previous Version | Text Only | Print | Product List | Glossary Off
Versions: 1 2 3 4 5 6 7 8 9 10 11 12 13 14 15 16 17 18 19 20 21 22 23 24 25 26 27 28 29 30 31 32 33 34 35 36 37 38 39 40 41 42 43 44 45 46 47 48 49 50

000
ASUS43 KGLD 050408
RWRGLD

GOODLAND FORECAST AREA HOURLY WEATHER ROUNDUP
NATIONAL WEATHER SERVICE GOODLAND KS
1000 PM MDT FRI SEP 04 2015

...OFFICIAL OBSERVATIONS...

CITY           SKY/WX    TMP DP  RH WIND       PRES   REMARKS
GOODLAND KS    MOCLDY    80  54  40 SE14      29.89S
HILL CITY KS   CLEAR     84  60  44 S10G18    29.87R
IMPERIAL NEB   MOCLDY    75  56  51 SE7       29.86S
MCCOOK NEB     MOCLDY    83  56  39 S9        29.84R
AKRON CO       LGT RAIN  69  56  62 NW9G20    29.94R
BURLINGTON CO  CLOUDY    77  52  41 S12       29.91F
LIMON CO       CLOUDY    72  51  47 S8        29.99R
$$

...UNOFFICIAL OBSERVATIONS...

CITY           SKY/WX    TMP DP  RH WIND       PRES   REMARKS
COLBY KS       CLEAR     81  61  50 SE14G20   29.90S
GOVE KS          N/A     84  32  15 MISG        N/A
LENORA KS        N/A     83  32  16 MISG        N/A
NORTON KS      CLEAR     81  52  36 SE8       29.86S
SHARON SPRINGS   N/A     79  55  43 SE10        N/A
TRENTON NEB      N/A     81  32  17 S10         N/A
KIT CARSON CO    N/A     80  51  35 MISG        N/A
YUMA CO          N/A     77  55  45 CALM        N/A
$$



USA.gov is the U.S. government's official web portal to all federal, state and local government web resources and services.